Regional Weather Roundup
Issued by NWS

Home | Current Version | Previous Version | Text Only | Print | Product List | Glossary Off
Versions: 1 2 3 4 5 6 7 8 9 10 11 12 13 14 15 16 17 18 19 20 21 22 23 24 25 26 27 28 29 30 31 32 33 34 35 36 37 38 39 40 41 42 43 44 45 46 47 48 49 50

000
ASUS43 KIND 030109
RWRIN

WEATHER ROUNDUP FOR INDIANA
NATIONAL WEATHER SERVICE INDIANAPOLIS IN
800 PM EST MON MAR 02 2015

NOTE: "FAIR" INDICATES FEW OR NO CLOUDS BELOW 12,000 FEET WITH NO
SIGNIFICANT WEATHER AND/OR OBSTRUCTIONS TO VISIBILITY.

* - STATION DOES NOT REPORT WEATHER SUCH AS PRECIPITATION OR FOG.

+ - STATION NOT QUALITY CONTROLLED BY THE NATIONAL WEATHER SERVICE.
    USE DATA WITH CAUTION...ESPECIALLY DEWPOINT AND RELATIVE
    HUMIDITY OBSERVATIONS.

INZ001>003-010>013-019-020-030200-
NORTHWEST INDIANA

CITY           SKY/WX    TMP DP  RH WIND       PRES   REMARKS
KNOX *+          N/A     27   3  36 S6        30.38F WCI  20
LA PORTE +     MOCLDY    27  16  63 CALM      30.38F
MICHIGAN CITY+ CLOUDY    28  12  50 CALM      30.38F
MONTICELLO +   CLOUDY    26  16  65 SE3       30.39F
RENSSELAER +   CLOUDY    27  21  80 CALM      30.38F
VALPARAISO     MOCLDY    25  13  60 S7        30.37F WCI  17

$$

LMZ046-743>745-030200-
SOUTHERN LAKE MICHIGAN

STATION/POSITION TIME  TEMP WIND        PRES
                       AIR  DIR/SP/G
                 (UTC) (F)  (DEG/KT/KT) (MB)
MICHIGAN CITY    0100   27  130/  6/  7   N/A

$$

INZ004-005-014>016-021>024-030200-
NORTH CENTRAL INDIANA

CITY           SKY/WX    TMP DP  RH WIND       PRES   REMARKS
ELKHART        CLEAR     27  10  50 S5        30.39F WCI  21
GOSHEN         MOCLDY    24  15  68 S6        30.38F WCI  17
LOGANSPORT +   MOCLDY    19  14  79 SE7       30.39F WCI  10
PERU/GRISSOM   MOCLDY    22  15  72 SE7       30.38F WCI  14
ROCHESTER +    PTCLDY    28  14  54 CALM      30.40F
SOUTH BEND     MOCLDY    27  16  63 CALM      30.38F
WARSAW +       MOCLDY    27  16  63 CALM      30.38F

$$

INZ006>009-017-018-025>027-030200-
NORTHEAST INDIANA

CITY           SKY/WX    TMP DP  RH WIND       PRES   REMARKS
ANGOLA *+      CLEAR     19  14  79 CALM      30.38S
AUBURN +       MOCLDY    25  14  63 CALM      30.40F
FORT WAYNE     MOCLDY    18  11  74 S6        30.42S WCI  10
HUNTINGTON +   PTCLDY    24  11  58 CALM      30.41S

$$

INZ028-029-035-036-043>045-051>053-030200-
WEST CENTRAL INDIANA

CITY           SKY/WX    TMP DP  RH WIND       PRES   REMARKS
CRAWFORDSVL +  MOCLDY    22   9  58 E5        30.37F WCI  15
GREENCASTLE +  PTCLDY    28  14  54 E9        30.37F WCI  20
LAFAYETTE      CLOUDY    25  16  68 E7        30.38F WCI  17
TERRE HAUTE    PTCLDY    30  16  56 E7        30.37F WCI  23

$$

INZ030>032-037>040-046>048-054>057-064-065-030200-
CENTRAL INDIANA

CITY           SKY/WX    TMP DP  RH WIND       PRES   REMARKS
CP ATTERBURY + CLOUDY    28  16  59 NE5       30.42F WCI  23
COLUMBUS       CLOUDY    25  16  68 NE5       30.42  WCI  19
FRANKFORT +    PTCLDY    24  18  80 E7        30.40F WCI  16
GREENWOOD *+   MOCLDY    27  10  50 E5        30.41F WCI  21
INDIANAPOLIS   MOCLDY    27  14  58 SE6       30.38F WCI  20
-EAGLE CREEK   MOCLDY    27  13  55 SE6       30.39F WCI  20
KOKOMO *+      PTCLDY    21  14  73 SE5       30.40F WCI  15
MARION +       CLOUDY    22  13  70 CALM      30.41F
MT COMFORT *+  PTCLDY    25   7  46 CALM      30.41F
SHELBYVILLE    MOCLDY    24  15  68 E6        30.41F WCI  17
ZIONSVILLE +   MOCLDY    26  13  57 SE5       30.40F WCI  21

$$

INZ033-034-041-042-049-050-058-059-030200-
EAST CENTRAL INDIANA

CITY           SKY/WX    TMP DP  RH WIND       PRES   REMARKS
MUNCIE         CLOUDY    25  13  60 SE3       30.41F

$$

INZ060-061-067>069-081>083-085>088-030200-
SOUTHWEST INDIANA

CITY           SKY/WX    TMP DP  RH WIND       PRES   REMARKS
EVANSVILLE     PTCLDY    33  23  66 CALM      30.37F
HUNTINGBURG *+ CLOUDY    32  18  55 NE8       30.38S WCI  25
WASHINGTON +   MOCLDY    29  19  64 E3        30.37F

$$

INZ062-063-066-070>080-084-089>092-030200-
SOUTH CENTRAL AND SOUTHEAST INDIANA

CITY           SKY/WX    TMP DP  RH WIND       PRES   REMARKS
BLOOMINGTON    PTCLDY    31  14  49 E9        30.36F WCI  23
NORTH VERNON + PTCLDY    28  18  64 CALM      30.41F
SEYMOUR +      MOCLDY    30  18  59 NE6       30.41F WCI  24

$$




USA.gov is the U.S. government's official web portal to all federal, state and local government web resources and services.